User: anonymous   Login
Location: The D'Auria's Ocala Star Observatory
(29.0276°N, 82.1742°W)
Time: 14:33:22
(UTC-04:00)
Language:

Okean 3 Rocket - Orbit

View from above orbital plane
View from above orbital plane
View from above satellite
View from above satellite

Ground track
Ground track

The orbit data is extracted from the following two-line orbital elements,

1 21398U 91039B   15149.56060213  .00000162  00000-0  18495-4 0  9998
2 21398 082.5235 203.9025 0022982 117.7935 354.3768 14.79471684293064
Epoch (UTC): 29 May 2015 13:27:16
Eccentricity: 0.0022982
inclination: 82.5235°
perigee height: 615 km
apogee height: 647 km
right ascension of ascending node: 203.9025°
argument of perigee: 117.7935°
revolutions per day: 14.79471684
mean anomaly at epoch: 354.3768°
orbit number at epoch: 29306

The dashed part of the orbit path shows where the satellite is in the earth's shadow,  

DLR